EW0295 Weather Reports


time (UTC)temp
F
wind
direction
speed
knots
gust
knots
rain 1hr
in
rain 24hr
in
rain mn
in
humidity
%
barometer
mb
20260502213603 56 213 0.9 4.3 0.00 0.00 0.00 85 1012.2
20260502212703 57 216 0.9 5.2 0.00 0.00 0.00 85 1012.3
20260502211803 57 222 1.7 5.2 0.00 0.00 0.00 84 1012.4
20260502211117 58 223 1.7 5.2 0.00 0.00 0.00 84 1012.5
20260502210003 58 225 0.9 5.2 0.00 0.00 0.00 83 1012.5
20260502205616 58 223 1.7 5.2 0.00 0.00 0.00 82 1012.5
20260502204503 59 225 1.7 6.1 0.00 0.00 0.00 82 1012.6
20260502203603 59 220 1.7 6.1 0.00 0.00 0.00 81 1012.5
20260502202703 60 224 1.7 7.0 0.00 0.00 0.00 81 1012.5
20260502201803 60 222 0.9 7.0 0.00 0.00 0.00 80 1012.5
20260502200903 60 221 0.9 3.5 0.00 0.00 0.00 80 1012.6
20260502200003 60 219 0.9 3.5 0.00 0.00 0.00 79 1012.5
20260502195616 60 220 0.9 6.1 0.00 0.00 0.00 78 1012.5
20260502194503 61 229 2.6 7.8 0.00 0.00 0.00 78 1012.6
20260502193818 61 227 2.6 7.8 0.00 0.00 0.00 77 1012.5
20260502192703 62 208 1.7 7.0 0.00 0.00 0.00 75 1012.4
20260502191803 62 214 1.7 6.1 0.00 0.00 0.00 74 1012.5
20260502190903 62 201 0.9 2.6 0.00 0.00 0.00 73 1012.4
20260502190004 62 210 0.9 3.5 0.00 0.00 0.00 72 1012.5
20260502185403 62 194 0.9 4.3 0.00 0.00 0.00 71 1012.4
20260502184503 63 205 0.9 4.3 0.00 0.00 0.00 70 1012.5
20260502183818 63 215 0.9 2.6 0.00 0.00 0.00 69 1012.6
20260502182703 63 237 0.9 3.5 0.00 0.00 0.00 68 1012.6
20260502181803 63 236 0.9 5.2 0.00 0.00 0.00 68 1012.6
20260502180903 64 253 2.6 8.7 0.00 0.00 0.00 66 1012.7
20260502163603 70 240 6.1 13.9 0.00 0.00 0.00 38 1012.9
20260502162703 72 243 5.2 13.0 0.00 0.00 0.00 37 1012.8
20260502161803 73 245 6.1 16.5 0.00 0.00 0.00 38 1012.8
20260502160903 73 235 6.1 17.4 0.00 0.00 0.00 35 1012.8
20260502152019 74 244 5.2 12.2 0.00 0.00 0.00 33 1013.0
20260502150903 75 222 7.0 15.6 0.00 0.00 0.00 32 1013.1
20260502123603 75 197 5.2 13.0 0.00 0.00 0.00 37 1014.4
20260502122703 75 205 4.3 14.8 0.00 0.00 0.00 37 1014.5
20260502121803 75 214 5.2 13.9 0.00 0.00 0.00 39 1014.5
20260502121118 75 201 5.2 12.2 0.00 0.00 0.00 40 1014.6
20260502115403 74 216 4.3 13.0 0.00 0.00 0.00 40 1014.8
20260502114716 74 206 5.2 13.0 0.00 0.00 0.00 41 1015.0
20260502113603 74 207 5.2 11.3 0.00 0.00 0.00 42 1015.1
20260502112703 74 204 4.3 12.2 0.00 0.00 0.00 42 1015.3
20260502111803 73 204 6.1 13.9 0.00 0.00 0.00 42 1015.4
20260502110903 74 206 4.3 11.3 0.00 0.00 0.00 42 1015.4
20260502110003 73 199 5.2 12.2 0.00 0.00 0.00 43 1015.6
20260502105403 73 204 5.2 12.2 0.00 0.00 0.00 42 1015.6
20260502104503 73 209 5.2 15.6 0.00 0.00 0.00 42 1015.7
20260502103603 72 208 4.3 15.6 0.00 0.00 0.00 44 1015.7
20260502102703 72 200 4.3 13.9 0.00 0.00 0.00 43 1015.8
20260502101803 71 199 5.2 11.3 0.00 0.00 0.00 45 1015.9
20260502101117 71 207 5.2 10.4 0.00 0.00 0.00 46 1016.0
20260502090903 69 217 2.6 8.7 0.00 0.00 0.00 54 1016.4
20260502070903 62 200 3.5 8.7 0.00 0.00 0.00 66 1017.3
20260502070003 61 195 3.5 8.7 0.00 0.00 0.00 65 1017.4
20260502065403 61 195 2.6 7.8 0.00 0.00 0.00 66 1017.3
20260502064503 61 181 2.6 8.7 0.00 0.00 0.00 66 1017.3
20260502063603 60 209 2.6 9.6 0.00 0.00 0.00 67 1017.3
20260502062703 60 198 2.6 9.6 0.00 0.00 0.00 67 1017.4
20260502061803 60 206 1.7 6.1 0.00 0.00 0.00 68 1017.4
20260502060903 60 194 1.7 6.1 0.00 0.00 0.00 67 1017.4
20260502060003 59 178 2.6 5.2 0.00 0.00 0.00 68 1017.5
20260502055403 58 173 2.6 6.1 0.00 0.00 0.00 69 1017.5
20260502054503 58 170 1.7 4.3 0.00 0.00 0.00 69 1017.6
20260502053603 58 160 0.9 3.5 0.00 0.00 0.00 70 1017.7
20260502052703 57 0 0.0 2.6 0.00 0.00 0.00 72 1017.7
20260502051803 56 149 0.9 1.7 0.00 0.00 0.00 73 1017.7
20260502050903 55 0 0.0 1.7 0.00 0.00 0.00 74 1017.8
20260502050003 54 0 0.0 1.7 0.00 0.00 0.00 74 1017.8
20260502045403 54 0 0.0 1.7 0.00 0.00 0.00 75 1017.8
20260502044504 53 142 0.9 2.6 0.00 0.00 0.00 76 1017.9
20260502043603 52 140 0.9 2.6 0.00 0.00 0.00 77 1018.0
20260502042703 52 0 0.0 0.9 0.00 0.00 0.00 78 1017.9
20260502041803 51 0 0.0 2.6 0.00 0.00 0.00 79 1018.1
20260502040903 50 140 0.9 1.7 0.00 0.00 0.00 80 1018.2
20260502040218 50 0 0.0 2.6 0.00 0.00 0.00 80 1018.3
20260502035403 49 0 0.0 0.9 0.00 0.00 0.00 80 1018.4
20260502034503 49 0 0.0 0.0 0.00 0.00 0.00 80 1018.5
20260502033603 49 0 0.0 0.0 0.00 0.00 0.00 80 1018.6
20260502032703 49 0 0.0 0.0 0.00 0.00 0.00 80 1018.8
20260502031803 49 0 0.0 0.0 0.00 0.00 0.00 79 1018.8
20260502030903 50 0 0.0 0.0 0.00 0.00 0.00 78 1019.0
20260502030003 50 0 0.0 0.0 0.00 0.00 0.00 78 1019.2
20260502025403 51 0 0.0 0.0 0.00 0.00 0.00 77 1019.2
20260502024503 51 0 0.0 0.0 0.00 0.00 0.00 77 1019.3
20260502023603 51 0 0.0 0.9 0.00 0.00 0.00 77 1019.4
20260502022919 51 150 0.9 2.6 0.00 0.00 0.00 76 1019.4
20260502021803 52 157 0.9 2.6 0.00 0.00 0.00 76 1019.6
20260502020903 52 156 0.9 3.5 0.00 0.00 0.00 75 1019.7
20260502020003 52 162 1.7 4.3 0.00 0.00 0.00 75 1019.7
20260502015403 52 157 1.7 4.3 0.00 0.00 0.00 74 1019.8
20260502014503 53 160 1.7 4.3 0.00 0.00 0.00 74 1020.0
20260502013815 53 167 1.7 5.2 0.00 0.00 0.00 73 1020.0
20260502012703 53 167 2.6 5.2 0.00 0.00 0.00 73 1020.2
20260502011803 53 167 2.6 6.1 0.00 0.00 0.00 73 1020.3
20260502010903 53 160 2.6 5.2 0.00 0.00 0.00 73 1020.4
20260502010003 53 166 2.6 5.2 0.00 0.00 0.00 72 1020.5
20260502005403 53 163 2.6 4.3 0.00 0.00 0.00 72 1020.7
20260502004503 53 168 2.6 4.3 0.00 0.00 0.00 72 1020.7
20260502003603 54 163 2.6 4.3 0.00 0.00 0.00 72 1020.9
20260502002703 54 153 2.6 5.2 0.00 0.00 0.00 72 1021.0
20260502001803 54 161 1.7 6.1 0.00 0.00 0.00 71 1021.1
20260502000903 54 165 2.6 6.1 0.00 0.00 0.00 71 1021.3
20260502000003 54 167 1.7 5.2 0.00 0.00 0.00 71 1021.4
20260501235403 54 162 1.7 5.2 0.00 0.00 0.00 71 1021.4
20260501234503 53 156 1.7 4.3 0.00 0.00 0.00 71 1021.5
20260501233603 53 149 1.7 4.3 0.00 0.00 0.00 72 1021.6
20260501232918 53 144 0.9 2.6 0.00 0.00 0.00 72 1021.7
20260501231803 53 144 0.9 2.6 0.00 0.00 0.00 72 1021.8
20260501230903 53 0 0.0 1.7 0.00 0.00 0.00 72 1021.9
20260501230003 53 134 0.9 2.6 0.00 0.00 0.00 72 1022.0
20260501225403 53 141 0.9 1.7 0.00 0.00 0.00 72 1022.1
20260501224503 53 0 0.0 0.9 0.00 0.00 0.00 72 1022.1
20260501223603 53 0 0.0 2.6 0.00 0.00 0.00 72 1022.3
20260501222703 53 0 0.0 0.0 0.00 0.00 0.00 73 1022.4
20260501221803 53 0 0.0 0.0 0.00 0.00 0.00 74 1022.4
20260501220903 53 0 0.0 0.0 0.00 0.00 0.00 73 1022.5
20260501220003 53 0 0.0 0.0 0.00 0.00 0.00 74 1022.6
20260501215619 53 0 0.0 0.0 0.00 0.00 0.00 73 1022.6